User: anonymous   Login
Location: Unspecified
(0.0000°N, 0.0000°E)
Time: 13:16:28
(UTC+00:00)
Language:

KH 9-19 ELINT - Orbit

View from above orbital plane
View from above orbital plane
View from above satellite
View from above satellite

Ground track
Ground track

The orbit data is extracted from the following two-line orbital elements,

1 15071U 84065C   20309.15406951 0.00000420  00000-0  40448-4 0    05
2 15071  95.8912 280.7321 0003997 222.2845 137.7153 14.93030502    00
Epoch (UTC): 04 November 2020 03:41:51
Eccentricity: 0.0003997
inclination: 95.8912°
perigee height: 586 km
apogee height: 591 km
right ascension of ascending node: 280.7321°
argument of perigee: 222.2845°
revolutions per day: 14.93030502
mean anomaly at epoch: 137.7153°
orbit number at epoch: 0

The dashed part of the orbit path shows where the satellite is in the earth's shadow,  

DLR